Time,TemperatureF,DewpointF,PressureIn,WindDirection,WindDirectionDegrees,WindSpeedMPH,WindSpeedGustMPH,Humidity,HourlyPrecipIn,Conditions,Clouds,dailyrainin,SoftwareType,DateUTC
2013-10-14 00:03:00,54.8,45.2,29.97,SSE,147,0.0,0.0,70,0.00,,CLR,0.00,VWS V14.01,2013-10-14 07:03:00,
2013-10-14 00:09:00,54.7,45.1,29.97,SSE,147,0.0,0.0,70,0.00,,CLR,0.00,VWS V14.01,2013-10-14 07:09:00,
2013-10-14 00:14:00,54.5,44.9,29.97,SSE,147,0.0,0.0,70,0.00,,CLR,0.00,VWS V14.01,2013-10-14 07:14:00,
2013-10-14 00:19:00,54.3,44.7,29.97,SSE,147,0.0,0.0,70,0.00,,CLR,0.00,VWS V14.01,2013-10-14 07:19:00,
2013-10-14 00:24:00,54.3,44.7,29.97,SSE,147,0.0,0.0,70,0.00,,CLR,0.00,VWS V14.01,2013-10-14 07:24:00,
2013-10-14 00:29:00,54.3,44.7,29.97,SSE,147,0.0,0.0,70,0.00,,CLR,0.00,VWS V14.01,2013-10-14 07:29:00,
2013-10-14 00:35:00,54.1,44.6,29.97,SSE,147,0.0,0.0,70,0.00,,CLR,0.00,VWS V14.01,2013-10-14 07:35:00,
2013-10-14 00:40:00,54.1,44.6,29.97,SSE,147,0.0,0.0,70,0.00,,CLR,0.00,VWS V14.01,2013-10-14 07:40:00,
2013-10-14 00:45:00,53.9,44.4,29.97,SSE,147,0.0,0.0,70,0.00,,CLR,0.00,VWS V14.01,2013-10-14 07:45:00,
2013-10-14 00:51:00,53.8,44.2,29.97,SSE,147,0.0,0.0,70,0.00,,CLR,0.00,VWS V14.01,2013-10-14 07:51:00,
2013-10-14 00:56:00,53.6,44.0,29.97,SSE,147,0.0,0.0,70,0.00,,CLR,0.00,VWS V14.01,2013-10-14 07:56:00,
2013-10-14 01:02:00,53.6,44.0,29.97,SSE,147,0.0,0.0,70,0.00,,CLR,0.00,VWS V14.01,2013-10-14 08:02:00,
2013-10-14 01:07:00,53.4,43.9,29.97,SSE,147,0.0,0.0,70,0.00,,CLR,0.00,VWS V14.01,2013-10-14 08:07:00,
2013-10-14 01:13:00,53.2,43.7,29.97,SSE,147,0.0,0.0,70,0.00,,CLR,0.00,VWS V14.01,2013-10-14 08:13:00,
2013-10-14 01:18:00,53.2,43.7,29.97,SSE,147,0.0,0.0,70,0.00,,CLR,0.00,VWS V14.01,2013-10-14 08:18:00,
2013-10-14 01:23:00,53.0,43.5,29.97,SSE,147,0.0,0.0,70,0.00,,CLR,0.00,VWS V14.01,2013-10-14 08:23:00,
2013-10-14 01:29:00,53.0,43.5,29.97,SSE,147,0.0,0.0,70,0.00,,CLR,0.00,VWS V14.01,2013-10-14 08:29:00,
2013-10-14 01:34:00,53.0,43.5,29.97,SSE,147,0.0,0.0,70,0.00,,CLR,0.00,VWS V14.01,2013-10-14 08:34:00,
2013-10-14 01:40:00,52.9,43.4,29.97,SSE,147,0.0,0.0,70,0.00,,CLR,0.00,VWS V14.01,2013-10-14 08:40:00,
2013-10-14 01:45:00,52.7,43.2,29.97,SSE,147,0.0,0.0,70,0.00,,CLR,0.00,VWS V14.01,2013-10-14 08:45:00,
2013-10-14 01:51:00,52.5,43.0,29.97,SSE,147,0.0,0.0,70,0.00,,CLR,0.00,VWS V14.01,2013-10-14 08:51:00,
2013-10-14 01:57:00,52.5,43.0,29.97,SSE,147,0.0,0.0,70,0.00,,CLR,0.00,VWS V14.01,2013-10-14 08:57:00,
2013-10-14 02:02:00,52.5,43.0,29.97,SSE,147,0.0,0.0,70,0.00,,CLR,0.00,VWS V14.01,2013-10-14 09:02:00,
2013-10-14 02:08:00,52.3,42.8,29.97,SSE,147,0.0,0.0,70,0.00,,CLR,0.00,VWS V14.01,2013-10-14 09:08:00,
2013-10-14 02:13:00,52.1,42.7,29.97,SSE,147,0.0,0.0,70,0.00,,CLR,0.00,VWS V14.01,2013-10-14 09:13:00,
2013-10-14 02:18:00,52.3,43.2,29.97,SSE,147,0.0,0.0,71,0.00,,CLR,0.00,VWS V14.01,2013-10-14 09:18:00,
2013-10-14 02:23:00,52.3,43.2,29.97,SSE,147,0.0,0.0,71,0.00,,CLR,0.00,VWS V14.01,2013-10-14 09:23:00,
2013-10-14 02:28:00,52.3,43.2,29.97,SSE,147,0.0,0.0,71,0.00,,CLR,0.00,VWS V14.01,2013-10-14 09:28:00,
2013-10-14 02:33:00,52.3,43.2,29.97,SSE,147,0.0,0.0,71,0.00,,CLR,0.00,VWS V14.01,2013-10-14 09:33:00,
2013-10-14 02:39:00,52.1,43.0,29.97,SSE,147,0.0,0.0,71,0.00,,CLR,0.00,VWS V14.01,2013-10-14 09:39:00,
2013-10-14 02:45:00,52.1,43.0,29.97,SSE,147,0.0,0.0,71,0.00,,CLR,0.00,VWS V14.01,2013-10-14 09:45:00,
2013-10-14 02:50:00,52.0,42.9,29.97,SSE,147,0.0,0.0,71,0.00,,CLR,0.00,VWS V14.01,2013-10-14 09:50:00,
2013-10-14 02:55:00,52.0,42.9,29.97,SSE,147,0.0,0.0,71,0.00,,CLR,0.00,VWS V14.01,2013-10-14 09:55:00,
2013-10-14 03:00:00,51.8,42.7,29.97,SSE,147,0.0,0.0,71,0.00,,CLR,0.00,VWS V14.01,2013-10-14 10:00:00,
2013-10-14 03:05:00,51.6,42.5,29.97,SSE,147,0.0,0.0,71,0.00,,CLR,0.00,VWS V14.01,2013-10-14 10:05:00,
2013-10-14 03:11:00,51.6,42.5,29.97,SSE,147,0.0,0.0,71,0.00,,CLR,0.00,VWS V14.01,2013-10-14 10:11:00,
2013-10-14 03:16:00,51.4,42.3,29.97,SSE,147,0.0,0.0,71,0.00,,CLR,0.00,VWS V14.01,2013-10-14 10:16:00,
2013-10-14 03:22:00,51.2,42.5,29.97,SSE,147,0.0,0.0,72,0.00,,CLR,0.00,VWS V14.01,2013-10-14 10:22:00,
2013-10-14 03:27:00,51.4,42.7,29.97,SSE,147,0.0,0.0,72,0.00,,CLR,0.00,VWS V14.01,2013-10-14 10:27:00,
2013-10-14 03:33:00,51.4,42.7,29.97,SSE,147,0.0,0.0,72,0.00,,CLR,0.00,VWS V14.01,2013-10-14 10:33:00,
2013-10-14 03:39:00,51.2,42.5,29.97,SSE,147,0.0,0.0,72,0.00,,CLR,0.00,VWS V14.01,2013-10-14 10:39:00,
2013-10-14 03:44:00,51.2,42.5,29.97,SSE,147,0.0,0.0,72,0.00,,CLR,0.00,VWS V14.01,2013-10-14 10:44:00,
2013-10-14 03:50:00,51.4,43.1,29.94,SSE,147,0.0,0.0,73,0.00,,CLR,0.00,VWS V14.01,2013-10-14 10:50:00,
2013-10-14 03:55:00,51.4,43.1,29.94,SSE,147,0.0,0.0,73,0.00,,CLR,0.00,VWS V14.01,2013-10-14 10:55:00,
2013-10-14 04:01:00,51.2,42.9,29.94,SSE,147,0.0,0.0,73,0.00,,CLR,0.00,VWS V14.01,2013-10-14 11:01:00,
2013-10-14 04:07:00,51.1,42.7,29.94,SSE,147,0.0,0.0,73,0.00,,CLR,0.00,VWS V14.01,2013-10-14 11:07:00,
2013-10-14 04:12:00,51.1,42.7,29.94,SSE,147,0.0,0.0,73,0.00,,CLR,0.00,VWS V14.01,2013-10-14 11:12:00,
2013-10-14 04:18:00,50.9,42.5,29.94,SSE,147,0.0,0.0,73,0.00,,CLR,0.00,VWS V14.01,2013-10-14 11:18:00,
2013-10-14 04:24:00,50.9,42.5,29.94,SSE,147,0.0,0.0,73,0.00,,CLR,0.00,VWS V14.01,2013-10-14 11:24:00,
2013-10-14 04:29:00,51.1,42.7,29.94,SSE,147,0.0,0.0,73,0.00,,CLR,0.00,VWS V14.01,2013-10-14 11:29:00,
2013-10-14 04:35:00,51.1,43.1,29.94,SSE,147,0.0,0.0,74,0.00,,CLR,0.00,VWS V14.01,2013-10-14 11:35:00,
2013-10-14 04:40:00,51.1,43.1,29.94,SSE,147,0.0,0.0,74,0.00,,CLR,0.00,VWS V14.01,2013-10-14 11:40:00,
2013-10-14 04:46:00,50.9,42.9,29.94,SSE,147,0.0,0.0,74,0.00,,CLR,0.00,VWS V14.01,2013-10-14 11:46:00,
2013-10-14 04:52:00,50.7,42.7,29.94,SSE,147,0.0,0.0,74,0.00,,CLR,0.00,VWS V14.01,2013-10-14 11:52:00,
2013-10-14 04:57:00,50.7,42.7,29.94,SSE,147,0.0,0.0,74,0.00,,CLR,0.00,VWS V14.01,2013-10-14 11:57:00,
2013-10-14 05:02:00,50.7,42.7,29.94,SSE,147,0.0,0.0,74,0.00,,CLR,0.00,VWS V14.01,2013-10-14 12:02:00,
2013-10-14 05:07:00,50.5,42.5,29.94,SSE,147,0.0,0.0,74,0.00,,CLR,0.00,VWS V14.01,2013-10-14 12:07:00,
2013-10-14 05:12:00,50.5,42.5,29.94,SSE,147,0.0,0.0,74,0.00,,CLR,0.00,VWS V14.01,2013-10-14 12:12:00,
2013-10-14 05:18:00,50.3,42.4,29.94,SSE,147,0.0,0.0,74,0.00,,CLR,0.00,VWS V14.01,2013-10-14 12:18:00,
2013-10-14 05:24:00,50.5,42.5,29.94,SSE,147,0.0,0.0,74,0.00,,CLR,0.00,VWS V14.01,2013-10-14 12:24:00,
2013-10-14 05:29:00,50.3,42.4,29.94,SSE,147,0.0,0.0,74,0.00,,CLR,0.00,VWS V14.01,2013-10-14 12:29:00,
2013-10-14 05:35:00,50.3,42.4,29.94,SSE,147,0.0,0.0,74,0.00,,CLR,0.00,VWS V14.01,2013-10-14 12:35:00,
2013-10-14 05:40:00,50.3,42.7,29.94,SSE,147,0.0,0.0,75,0.00,,CLR,0.00,VWS V14.01,2013-10-14 12:40:00,
2013-10-14 05:46:00,50.3,42.7,29.94,SSE,147,0.0,0.0,75,0.00,,CLR,0.00,VWS V14.01,2013-10-14 12:46:00,
2013-10-14 05:51:00,50.3,42.7,29.94,SSE,147,0.0,0.0,75,0.00,,CLR,0.00,VWS V14.01,2013-10-14 12:51:00,
2013-10-14 05:56:00,50.3,42.7,29.94,SSE,147,0.0,0.0,75,0.00,,CLR,0.00,VWS V14.01,2013-10-14 12:56:00,
2013-10-14 06:01:00,50.2,42.5,29.97,SSE,147,0.0,0.0,75,0.00,,CLR,0.00,VWS V14.01,2013-10-14 13:01:00,
2013-10-14 06:07:00,50.2,42.5,29.97,SSE,147,0.0,0.0,75,0.00,,CLR,0.00,VWS V14.01,2013-10-14 13:07:00,
2013-10-14 06:13:00,50.0,42.4,29.97,SSE,147,0.0,0.0,75,0.00,,CLR,0.00,VWS V14.01,2013-10-14 13:13:00,
2013-10-14 06:18:00,50.0,42.4,29.97,SSE,147,0.0,0.0,75,0.00,,CLR,0.00,VWS V14.01,2013-10-14 13:18:00,
2013-10-14 06:24:00,49.8,42.2,29.97,SSE,147,0.0,0.0,75,0.00,,CLR,0.00,VWS V14.01,2013-10-14 13:24:00,
2013-10-14 06:29:00,50.2,42.9,29.97,SSE,147,0.0,0.0,76,0.00,,CLR,0.00,VWS V14.01,2013-10-14 13:29:00,
2013-10-14 06:34:00,50.3,43.1,29.97,SSE,147,0.0,0.0,76,0.00,,CLR,0.00,VWS V14.01,2013-10-14 13:34:00,
2013-10-14 06:39:00,50.3,43.4,29.97,SSE,147,0.0,0.0,77,0.00,,CLR,0.00,VWS V14.01,2013-10-14 13:39:00,
2013-10-14 06:45:00,50.2,43.2,29.97,SSE,147,0.0,0.0,77,0.00,,CLR,0.00,VWS V14.01,2013-10-14 13:45:00,
2013-10-14 06:50:00,50.3,43.4,29.97,SSE,147,0.0,0.0,77,0.00,,CLR,0.00,VWS V14.01,2013-10-14 13:50:00,
2013-10-14 06:56:00,50.3,43.4,29.97,SSE,147,0.0,0.0,77,0.00,,CLR,0.00,VWS V14.01,2013-10-14 13:56:00,
2013-10-14 07:02:00,50.3,43.8,29.97,SSE,147,0.0,0.0,78,0.00,,CLR,0.00,VWS V14.01,2013-10-14 14:02:00,
2013-10-14 07:07:00,50.5,43.9,29.97,SSE,147,0.0,0.0,78,0.00,,CLR,0.00,VWS V14.01,2013-10-14 14:07:00,
2013-10-14 07:13:00,50.5,43.9,29.97,SSE,147,2.2,2.7,78,0.00,,CLR,0.00,VWS V14.01,2013-10-14 14:13:00,
2013-10-14 07:18:00,50.9,44.6,29.97,SSE,147,0.0,2.7,79,0.00,,CLR,0.00,VWS V14.01,2013-10-14 14:18:00,
2013-10-14 07:24:00,51.2,45.0,29.97,SSE,147,0.0,0.0,79,0.00,,CLR,0.00,VWS V14.01,2013-10-14 14:24:00,
2013-10-14 07:30:00,51.2,45.0,29.97,SSE,147,0.0,0.0,79,0.00,,CLR,0.00,VWS V14.01,2013-10-14 14:30:00,
2013-10-14 07:35:00,51.4,45.5,29.97,SSE,147,0.0,0.0,80,0.00,,CLR,0.00,VWS V14.01,2013-10-14 14:35:00,
2013-10-14 07:41:00,51.6,45.3,29.97,SSE,147,0.0,0.0,79,0.00,,CLR,0.00,VWS V14.01,2013-10-14 14:41:00,
2013-10-14 07:46:00,51.8,45.5,29.97,SSE,147,0.0,0.0,79,0.00,,CLR,0.00,VWS V14.01,2013-10-14 14:46:00,
2013-10-14 07:52:00,52.3,46.3,29.97,SSE,147,0.0,0.0,80,0.00,,CLR,0.00,VWS V14.01,2013-10-14 14:52:00,
2013-10-14 07:57:00,53.0,47.0,29.97,SSE,147,0.0,0.0,80,0.00,,CLR,0.00,VWS V14.01,2013-10-14 14:57:00,
2013-10-14 08:02:00,53.4,47.7,29.97,SSE,147,0.0,0.0,81,0.00,,CLR,0.00,VWS V14.01,2013-10-14 15:02:00,
2013-10-14 08:08:00,53.9,48.2,29.97,SSE,147,0.0,0.0,81,0.00,,CLR,0.00,VWS V14.01,2013-10-14 15:08:00,
2013-10-14 08:13:00,54.3,48.9,29.97,SSE,147,0.0,3.1,82,0.00,,CLR,0.00,VWS V14.01,2013-10-14 15:13:00,
2013-10-14 08:19:00,54.8,49.5,29.97,SSE,147,0.0,0.0,82,0.00,,CLR,0.00,VWS V14.01,2013-10-14 15:19:00,
2013-10-14 08:24:00,55.2,49.8,29.97,SSE,147,0.0,0.0,82,0.00,,CLR,0.00,VWS V14.01,2013-10-14 15:24:00,
2013-10-14 08:30:00,56.1,50.7,29.97,SSE,147,0.0,0.0,82,0.00,,CLR,0.00,VWS V14.01,2013-10-14 15:30:00,
2013-10-14 08:36:00,56.6,51.5,29.97,SSE,147,0.0,0.0,83,0.00,,,0.00,VWS V14.01,2013-10-14 15:36:00,
2013-10-14 08:41:00,57.2,51.7,29.97,SSE,147,0.0,0.0,82,0.00,,,0.00,VWS V14.01,2013-10-14 15:41:00,
2013-10-14 08:47:00,58.1,52.6,29.97,SSE,147,2.7,2.7,82,0.00,,,0.00,VWS V14.01,2013-10-14 15:47:00,
2013-10-14 08:52:00,59.0,53.5,29.97,SSE,147,0.0,3.1,82,0.00,,,0.00,VWS V14.01,2013-10-14 15:52:00,
2013-10-14 08:57:00,59.0,53.5,29.97,SSE,147,0.0,0.0,82,0.00,,,0.00,VWS V14.01,2013-10-14 15:57:00,
2013-10-14 09:02:00,59.5,53.7,29.97,SSE,147,4.5,4.9,81,0.00,,,0.00,VWS V14.01,2013-10-14 16:02:00,
2013-10-14 09:08:00,59.7,51.4,29.97,NW,312,3.6,3.6,74,0.00,,,0.00,VWS V14.01,2013-10-14 16:08:00,
2013-10-14 09:13:00,61.0,48.3,29.97,North,353,2.7,3.6,63,0.00,,,0.00,VWS V14.01,2013-10-14 16:13:00,
2013-10-14 09:18:00,61.7,45.4,29.97,North,350,3.1,3.1,55,0.00,,,0.00,VWS V14.01,2013-10-14 16:18:00,
2013-10-14 09:23:00,62.6,44.2,29.97,NNW,348,4.0,4.0,51,0.00,,,0.00,VWS V14.01,2013-10-14 16:23:00,
2013-10-14 09:28:00,63.5,44.0,29.97,North,353,0.0,4.0,49,0.00,,,0.00,VWS V14.01,2013-10-14 16:28:00,
2013-10-14 09:33:00,63.8,44.3,29.97,WNW,296,2.7,2.7,49,0.00,,,0.00,VWS V14.01,2013-10-14 16:33:00,
2013-10-14 09:39:00,64.6,39.7,29.97,NW,323,3.1,3.1,40,0.00,,,0.00,VWS V14.01,2013-10-14 16:39:00,
2013-10-14 09:44:00,65.3,39.0,29.97,WSW,242,3.1,3.6,38,0.00,,,0.00,VWS V14.01,2013-10-14 16:44:00,
2013-10-14 09:50:00,65.8,38.8,29.97,West,272,3.1,3.6,37,0.00,,,0.00,VWS V14.01,2013-10-14 16:50:00,
2013-10-14 09:55:00,66.2,37.8,29.97,WNW,297,2.7,3.6,35,0.00,,,0.00,VWS V14.01,2013-10-14 16:55:00,
2013-10-14 10:01:00,66.5,37.3,29.97,WSW,246,4.9,5.4,34,0.00,,,0.00,VWS V14.01,2013-10-14 17:01:00,
2013-10-14 10:06:00,66.7,37.5,29.97,WNW,284,3.6,3.6,34,0.00,,,0.00,VWS V14.01,2013-10-14 17:06:00,
2013-10-14 10:11:00,67.4,37.4,29.97,West,268,5.4,5.4,33,0.00,,,0.00,VWS V14.01,2013-10-14 17:11:00,
2013-10-14 10:16:00,68.2,38.0,29.97,WNW,286,4.9,6.7,33,0.00,,,0.00,VWS V14.01,2013-10-14 17:16:00,
2013-10-14 10:22:00,68.9,37.8,29.97,NW,315,4.0,4.0,32,0.00,,,0.00,VWS V14.01,2013-10-14 17:22:00,
2013-10-14 10:28:00,69.4,36.7,29.97,WNW,294,5.4,6.3,30,0.00,,,0.00,VWS V14.01,2013-10-14 17:28:00,
2013-10-14 10:33:00,70.1,36.4,29.97,WNW,286,3.1,3.6,29,0.00,,,0.00,VWS V14.01,2013-10-14 17:33:00,
2013-10-14 10:39:00,71.6,33.9,29.97,NW,317,4.0,5.4,25,0.00,,,0.00,VWS V14.01,2013-10-14 17:39:00,
2013-10-14 10:44:00,72.1,34.4,29.97,NW,321,5.4,5.4,25,0.00,,,0.00,VWS V14.01,2013-10-14 17:44:00,
2013-10-14 10:50:00,72.7,32.8,29.97,WNW,300,4.9,5.4,23,0.00,,,0.00,VWS V14.01,2013-10-14 17:50:00,
2013-10-14 10:56:00,72.8,31.8,29.97,West,263,3.6,4.0,22,0.00,,,0.00,VWS V14.01,2013-10-14 17:56:00,
2013-10-14 11:01:00,73.9,32.7,29.97,WNW,298,3.1,4.0,22,0.00,,,0.00,VWS V14.01,2013-10-14 18:01:00,
2013-10-14 11:07:00,74.6,32.2,29.97,North,353,5.4,8.1,21,0.00,,,0.00,VWS V14.01,2013-10-14 18:07:00,
2013-10-14 11:13:00,75.0,31.2,29.97,West,281,5.4,5.8,20,0.00,,,0.00,VWS V14.01,2013-10-14 18:13:00,
2013-10-14 11:18:00,75.5,31.7,29.94,WNW,302,2.2,3.6,20,0.00,,,0.00,VWS V14.01,2013-10-14 18:18:00,
2013-10-14 11:23:00,76.1,29.5,29.94,NNW,335,5.4,6.3,18,0.00,,,0.00,VWS V14.01,2013-10-14 18:23:00,
2013-10-14 11:29:00,76.8,28.7,29.94,West,271,6.3,6.3,17,0.00,,,0.00,VWS V14.01,2013-10-14 18:29:00,
2013-10-14 11:34:00,77.0,28.9,29.94,WNW,294,2.2,4.0,17,0.00,,,0.00,VWS V14.01,2013-10-14 18:34:00,
2013-10-14 11:39:00,77.9,26.6,29.94,North,4,2.7,2.7,15,0.00,,CLR,0.00,VWS V14.01,2013-10-14 18:39:00,
2013-10-14 11:45:00,78.6,21.8,29.94,North,6,3.1,3.6,12,0.00,,CLR,0.00,VWS V14.01,2013-10-14 18:45:00,
2013-10-14 11:50:00,79.5,22.5,29.94,NNW,332,2.7,4.9,12,0.00,,CLR,0.00,VWS V14.01,2013-10-14 18:50:00,
2013-10-14 11:55:00,80.6,21.3,29.94,WNW,288,4.0,4.0,11,0.00,,CLR,0.00,VWS V14.01,2013-10-14 18:55:00,
2013-10-14 12:00:00,80.6,21.3,29.94,WNW,297,3.6,4.0,11,0.00,,CLR,0.00,VWS V14.01,2013-10-14 19:00:00,
2013-10-14 12:06:00,79.7,22.6,29.94,NNW,331,3.6,5.4,12,0.00,,CLR,0.00,VWS V14.01,2013-10-14 19:06:00,
2013-10-14 12:11:00,80.2,23.0,29.94,NNW,342,2.7,3.6,12,0.00,,CLR,0.00,VWS V14.01,2013-10-14 19:11:00,
2013-10-14 12:17:00,80.0,16.2,29.94,NW,309,3.6,7.6,9,0.00,,CLR,0.00,VWS V14.01,2013-10-14 19:17:00,
2013-10-14 12:23:00,82.0,17.7,29.94,North,353,5.8,5.8,9,0.00,,CLR,0.00,VWS V14.01,2013-10-14 19:23:00,
2013-10-14 12:28:00,81.8,17.5,29.94,NW,307,4.0,5.4,9,0.00,,CLR,0.00,VWS V14.01,2013-10-14 19:28:00,
2013-10-14 12:34:00,83.3,15.9,29.91,ENE,78,0.0,0.0,8,0.00,,CLR,0.00,VWS V14.01,2013-10-14 19:34:00,
2013-10-14 12:39:00,84.4,16.7,29.91,SW,226,0.0,3.1,8,0.00,,CLR,0.00,VWS V14.01,2013-10-14 19:39:00,
2013-10-14 12:45:00,85.1,17.2,29.91,WSW,258,2.2,2.7,8,0.00,,CLR,0.00,VWS V14.01,2013-10-14 19:45:00,
2013-10-14 12:50:00,85.1,17.2,29.91,West,263,0.0,0.0,8,0.00,,CLR,0.00,VWS V14.01,2013-10-14 19:50:00,
2013-10-14 12:56:00,85.6,17.6,29.91,WNW,286,5.4,5.4,8,0.00,,CLR,0.00,VWS V14.01,2013-10-14 19:56:00,
2013-10-14 13:01:00,84.7,17.0,29.91,NW,304,3.6,4.0,8,0.00,,CLR,0.00,VWS V14.01,2013-10-14 20:01:00,
2013-10-14 13:06:00,84.9,17.1,29.91,West,278,2.7,6.3,8,0.00,,CLR,0.00,VWS V14.01,2013-10-14 20:06:00,
2013-10-14 13:12:00,85.3,17.4,29.91,NW,310,3.1,4.0,8,0.00,,CLR,0.00,VWS V14.01,2013-10-14 20:12:00,
2013-10-14 13:17:00,84.7,17.0,29.88,NW,307,5.8,5.8,8,0.00,,CLR,0.00,VWS V14.01,2013-10-14 20:17:00,
2013-10-14 13:23:00,85.3,17.4,29.88,WSW,250,2.7,5.8,8,0.00,,CLR,0.00,VWS V14.01,2013-10-14 20:23:00,
2013-10-14 13:28:00,86.7,18.4,29.88,West,271,6.3,6.3,8,0.00,,CLR,0.00,VWS V14.01,2013-10-14 20:28:00,
2013-10-14 13:34:00,86.2,18.0,29.88,WNW,292,4.0,8.1,8,0.00,,CLR,0.00,VWS V14.01,2013-10-14 20:34:00,
2013-10-14 13:39:00,86.7,18.4,29.88,WSW,251,3.1,3.1,8,0.00,,CLR,0.00,VWS V14.01,2013-10-14 20:39:00,
2013-10-14 13:45:00,85.8,17.8,29.88,WSW,249,4.9,5.4,8,0.00,,CLR,0.00,VWS V14.01,2013-10-14 20:45:00,
2013-10-14 13:50:00,86.0,17.9,29.88,WSW,250,3.1,5.4,8,0.00,,CLR,0.00,VWS V14.01,2013-10-14 20:50:00,
2013-10-14 13:55:00,86.2,18.0,29.88,WSW,246,8.3,8.3,8,0.00,,CLR,0.00,VWS V14.01,2013-10-14 20:55:00,
2013-10-14 14:01:00,86.2,18.0,29.88,WNW,294,5.4,5.4,8,0.00,,CLR,0.00,VWS V14.01,2013-10-14 21:01:00,
2013-10-14 14:06:00,84.4,16.7,29.88,West,269,5.4,6.3,8,0.00,,CLR,0.00,VWS V14.01,2013-10-14 21:06:00,
2013-10-14 14:08:00,84.7,17.0,29.88,WSW,246,7.2,7.2,8,0.00,,CLR,0.00,VWS V14.01,2013-10-14 21:08:00,
2013-10-14 14:13:00,85.8,17.8,29.88,WNW,288,8.3,8.3,8,0.00,,CLR,0.00,VWS V14.01,2013-10-14 21:13:00,
2013-10-14 14:18:00,85.1,17.2,29.85,WNW,293,4.9,8.7,8,0.00,,CLR,0.00,VWS V14.01,2013-10-14 21:18:00,
2013-10-14 14:23:00,83.1,15.8,29.85,WNW,296,4.0,10.1,8,0.00,,CLR,0.00,VWS V14.01,2013-10-14 21:23:00,
2013-10-14 14:29:00,82.7,15.5,29.85,WNW,290,5.8,7.6,8,0.00,,CLR,0.00,VWS V14.01,2013-10-14 21:29:00,
2013-10-14 14:34:00,84.2,16.6,29.85,NNW,333,8.7,8.7,8,0.00,,CLR,0.00,VWS V14.01,2013-10-14 21:34:00,
2013-10-14 14:40:00,83.8,16.3,29.85,WSW,248,7.6,10.5,8,0.00,,CLR,0.00,VWS V14.01,2013-10-14 21:40:00,
2013-10-14 14:45:00,83.5,16.0,29.85,NW,316,7.6,8.7,8,0.00,,CLR,0.00,VWS V14.01,2013-10-14 21:45:00,
2013-10-14 14:51:00,82.9,15.6,29.85,WNW,292,9.6,10.1,8,0.00,,CLR,0.00,VWS V14.01,2013-10-14 21:51:00,
2013-10-14 14:56:00,84.0,16.4,29.85,NW,308,5.4,7.6,8,0.00,,CLR,0.00,VWS V14.01,2013-10-14 21:56:00,
2013-10-14 15:02:00,84.4,16.7,29.85,NW,324,5.4,8.7,8,0.00,,CLR,0.00,VWS V14.01,2013-10-14 22:02:00,
2013-10-14 15:07:00,82.7,15.5,29.85,West,261,4.0,8.7,8,0.00,,CLR,0.00,VWS V14.01,2013-10-14 22:07:00,
2013-10-14 15:12:00,82.6,15.4,29.85,WSW,244,6.3,8.1,8,0.00,,CLR,0.00,VWS V14.01,2013-10-14 22:12:00,
2013-10-14 15:18:00,82.4,15.2,29.85,West,264,5.8,6.3,8,0.00,,CLR,0.00,VWS V14.01,2013-10-14 22:18:00,
2013-10-14 15:23:00,82.7,15.5,29.85,West,276,5.4,10.5,8,0.00,,CLR,0.00,VWS V14.01,2013-10-14 22:23:00,
2013-10-14 15:29:00,82.9,15.6,29.85,West,279,5.8,6.3,8,0.00,,CLR,0.00,VWS V14.01,2013-10-14 22:29:00,
2013-10-14 15:34:00,82.4,15.2,29.85,WNW,296,6.7,6.7,8,0.00,,CLR,0.00,VWS V14.01,2013-10-14 22:34:00,
2013-10-14 15:40:00,82.4,15.2,29.85,WSW,253,5.4,8.7,8,0.00,,CLR,0.00,VWS V14.01,2013-10-14 22:40:00,
2013-10-14 15:45:00,82.9,15.6,29.85,West,266,6.3,7.6,8,0.00,,CLR,0.00,VWS V14.01,2013-10-14 22:45:00,
2013-10-14 15:51:00,82.9,15.6,29.85,WNW,287,8.1,8.7,8,0.00,,CLR,0.00,VWS V14.01,2013-10-14 22:51:00,
2013-10-14 15:57:00,82.4,15.2,29.85,WNW,299,9.2,9.2,8,0.00,,CLR,0.00,VWS V14.01,2013-10-14 22:57:00,
2013-10-14 16:02:00,80.9,16.9,29.83,NW,306,10.1,10.1,9,0.00,,CLR,0.00,VWS V14.01,2013-10-14 23:02:00,
2013-10-14 16:07:00,80.6,16.6,29.83,West,270,6.3,8.7,9,0.00,,CLR,0.00,VWS V14.01,2013-10-14 23:07:00,
2013-10-14 16:12:00,79.3,15.6,29.83,WNW,299,8.1,8.1,9,0.00,,CLR,0.00,VWS V14.01,2013-10-14 23:12:00,
2013-10-14 16:18:00,79.3,15.6,29.83,WNW,285,8.7,10.5,9,0.00,,CLR,0.00,VWS V14.01,2013-10-14 23:18:00,
2013-10-14 16:23:00,80.0,16.2,29.83,NNW,334,5.4,7.6,9,0.00,,CLR,0.00,VWS V14.01,2013-10-14 23:23:00,
2013-10-14 16:28:00,79.1,15.5,29.83,WNW,295,5.8,7.2,9,0.00,,CLR,0.00,VWS V14.01,2013-10-14 23:28:00,
2013-10-14 16:34:00,78.4,17.4,29.83,West,261,8.7,8.7,10,0.00,,CLR,0.00,VWS V14.01,2013-10-14 23:34:00,
2013-10-14 16:40:00,78.6,21.8,29.83,WNW,290,5.8,6.3,12,0.00,,CLR,0.00,VWS V14.01,2013-10-14 23:40:00,
2013-10-14 16:45:00,78.8,21.9,29.83,West,265,6.3,6.3,12,0.00,,CLR,0.00,VWS V14.01,2013-10-14 23:45:00,
2013-10-14 16:50:00,78.2,21.5,29.83,WNW,288,5.4,8.7,12,0.00,,CLR,0.00,VWS V14.01,2013-10-14 23:50:00,
2013-10-14 16:55:00,78.2,21.5,29.83,WNW,302,4.0,5.4,12,0.00,,CLR,0.00,VWS V14.01,2013-10-14 23:55:00,
2013-10-14 17:01:00,77.7,26.4,29.83,WNW,285,7.6,8.3,15,0.00,,CLR,0.00,VWS V14.01,2013-10-15 00:01:00,
2013-10-14 17:06:00,77.3,29.2,29.83,West,276,5.8,7.6,17,0.00,,CLR,0.00,VWS V14.01,2013-10-15 00:06:00,
2013-10-14 17:12:00,76.4,32.4,29.83,NW,310,8.7,8.7,20,0.00,,CLR,0.00,VWS V14.01,2013-10-15 00:12:00,
2013-10-14 17:18:00,75.4,31.5,29.83,NW,312,5.4,6.3,20,0.00,,CLR,0.00,VWS V14.01,2013-10-15 00:18:00,
2013-10-14 17:23:00,75.0,31.2,29.83,West,277,5.8,8.3,20,0.00,,CLR,0.00,VWS V14.01,2013-10-15 00:23:00,
2013-10-14 17:29:00,74.8,32.3,29.83,NW,310,5.8,7.6,21,0.00,,CLR,0.00,VWS V14.01,2013-10-15 00:29:00,
2013-10-14 17:35:00,73.6,31.3,29.83,WNW,290,3.1,5.8,21,0.00,,CLR,0.00,VWS V14.01,2013-10-15 00:35:00,
2013-10-14 17:40:00,72.5,32.6,29.83,NW,313,7.2,8.7,23,0.00,,CLR,0.00,VWS V14.01,2013-10-15 00:40:00,
2013-10-14 17:46:00,72.3,32.5,29.83,NW,326,3.6,11.0,23,0.00,,CLR,0.00,VWS V14.01,2013-10-15 00:46:00,
2013-10-14 17:51:00,72.1,32.3,29.83,NW,315,4.0,6.3,23,0.00,,CLR,0.00,VWS V14.01,2013-10-15 00:51:00,
2013-10-14 17:57:00,71.8,32.0,29.83,WNW,288,6.3,8.7,23,0.00,,CLR,0.00,VWS V14.01,2013-10-15 00:57:00,
2013-10-14 18:03:00,71.4,32.8,29.83,NW,320,4.0,4.0,24,0.00,,CLR,0.00,VWS V14.01,2013-10-15 01:03:00,
2013-10-14 18:08:00,71.0,33.5,29.83,NW,306,5.4,6.3,25,0.00,,CLR,0.00,VWS V14.01,2013-10-15 01:08:00,
2013-10-14 18:13:00,70.5,34.0,29.83,NW,320,3.6,6.3,26,0.00,,CLR,0.00,VWS V14.01,2013-10-15 01:13:00,
2013-10-14 18:18:00,70.1,33.7,29.83,WNW,283,3.1,3.6,26,0.00,,CLR,0.00,VWS V14.01,2013-10-15 01:18:00,
2013-10-14 18:23:00,69.8,35.2,29.83,WNW,291,3.6,5.4,28,0.00,,CLR,0.00,VWS V14.01,2013-10-15 01:23:00,
2013-10-14 18:28:00,69.1,34.6,29.83,WSW,258,5.8,6.3,28,0.00,,CLR,0.00,VWS V14.01,2013-10-15 01:28:00,
2013-10-14 18:34:00,68.9,35.3,29.83,WNW,293,4.0,7.6,29,0.00,,CLR,0.00,VWS V14.01,2013-10-15 01:34:00,
2013-10-14 18:39:00,68.5,37.5,29.83,West,264,2.7,4.9,32,0.00,,CLR,0.00,VWS V14.01,2013-10-15 01:39:00,
2013-10-14 18:45:00,68.3,37.4,29.85,WNW,291,2.7,4.9,32,0.00,,CLR,0.00,VWS V14.01,2013-10-15 01:45:00,
2013-10-14 18:50:00,68.2,38.0,29.85,NW,315,0.0,0.0,33,0.00,,CLR,0.00,VWS V14.01,2013-10-15 01:50:00,
2013-10-14 18:56:00,68.0,37.0,29.85,NNW,328,0.0,2.2,32,0.00,,CLR,0.00,VWS V14.01,2013-10-15 01:56:00,
2013-10-14 19:02:00,67.6,38.3,29.85,WNW,283,2.7,3.1,34,0.00,,CLR,0.00,VWS V14.01,2013-10-15 02:02:00,
2013-10-14 19:07:00,67.4,38.9,29.85,WNW,302,2.7,3.6,35,0.00,,CLR,0.00,VWS V14.01,2013-10-15 02:07:00,
2013-10-14 19:13:00,67.1,39.3,29.85,West,269,4.9,5.4,36,0.00,,CLR,0.00,VWS V14.01,2013-10-15 02:13:00,
2013-10-14 19:18:00,66.9,39.8,29.85,NW,321,3.1,3.1,37,0.00,,CLR,0.00,VWS V14.01,2013-10-15 02:18:00,
2013-10-14 19:24:00,66.5,40.2,29.85,NNW,346,3.1,3.6,38,0.00,,CLR,0.00,VWS V14.01,2013-10-15 02:24:00,
2013-10-14 19:29:00,66.4,40.7,29.85,NW,319,3.1,4.0,39,0.00,,CLR,0.00,VWS V14.01,2013-10-15 02:29:00,
2013-10-14 19:34:00,66.2,41.8,29.85,NNW,328,4.9,4.9,41,0.00,,CLR,0.00,VWS V14.01,2013-10-15 02:34:00,
2013-10-14 19:39:00,66.0,42.9,29.85,WNW,291,2.7,5.4,43,0.00,,CLR,0.00,VWS V14.01,2013-10-15 02:39:00,
2013-10-14 19:45:00,65.8,43.3,29.85,NW,313,4.0,4.5,44,0.00,,CLR,0.00,VWS V14.01,2013-10-15 02:45:00,
2013-10-14 19:51:00,65.6,43.8,29.85,WNW,297,4.0,4.0,45,0.00,,CLR,0.00,VWS V14.01,2013-10-15 02:51:00,
2013-10-14 19:56:00,65.5,43.0,29.85,NNW,341,0.0,0.0,44,0.00,,CLR,0.00,VWS V14.01,2013-10-15 02:56:00,
2013-10-14 20:02:00,65.3,43.4,29.85,NW,319,3.6,3.6,45,0.00,,CLR,0.00,VWS V14.01,2013-10-15 03:02:00,
2013-10-14 20:07:00,65.1,43.3,29.85,NNW,331,0.0,0.0,45,0.00,,CLR,0.00,VWS V14.01,2013-10-15 03:07:00,
2013-10-14 20:13:00,64.9,43.1,29.85,North,349,0.0,2.7,45,0.00,,CLR,0.00,VWS V14.01,2013-10-15 03:13:00,
2013-10-14 20:18:00,64.7,43.5,29.85,North,349,0.0,0.0,46,0.00,,CLR,0.00,VWS V14.01,2013-10-15 03:18:00,
2013-10-14 20:24:00,64.4,42.6,29.85,North,349,0.0,0.0,45,0.00,,CLR,0.00,VWS V14.01,2013-10-15 03:24:00,
2013-10-14 20:29:00,64.2,42.4,29.85,North,349,0.0,0.0,45,0.00,,CLR,0.00,VWS V14.01,2013-10-15 03:29:00,
2013-10-14 20:34:00,64.0,42.8,29.85,North,349,0.0,0.0,46,0.00,,CLR,0.00,VWS V14.01,2013-10-15 03:34:00,
2013-10-14 20:40:00,63.7,42.5,29.85,North,350,0.0,0.0,46,0.00,,CLR,0.00,VWS V14.01,2013-10-15 03:40:00,
2013-10-14 20:45:00,63.5,42.3,29.85,North,350,2.7,3.1,46,0.00,,CLR,0.00,VWS V14.01,2013-10-15 03:45:00,
2013-10-14 20:51:00,63.3,42.2,29.85,NNE,25,2.7,2.7,46,0.00,,CLR,0.00,VWS V14.01,2013-10-15 03:51:00,
2013-10-14 20:56:00,63.1,42.6,29.85,NNE,24,0.0,0.0,47,0.00,,CLR,0.00,VWS V14.01,2013-10-15 03:56:00,
2013-10-14 21:01:00,63.1,43.7,29.85,NNE,24,0.0,0.0,49,0.00,,CLR,0.00,VWS V14.01,2013-10-15 04:01:00,
2013-10-14 21:02:00,63.1,44.2,29.85,NNE,24,0.0,0.0,50,0.00,,CLR,0.00,VWS V14.01,2013-10-15 04:02:00,
2013-10-14 21:05:00,62.9,44.5,29.85,SSE,149,3.6,3.6,51,0.00,,CLR,0.00,VWS V14.01,2013-10-15 04:05:00,
2013-10-14 21:08:00,62.9,45.6,29.85,SE,146,0.0,2.7,53,0.00,,CLR,0.00,VWS V14.01,2013-10-15 04:08:00,
2013-10-14 21:13:00,62.8,46.4,29.85,SE,146,0.0,0.0,55,0.00,,CLR,0.00,VWS V14.01,2013-10-15 04:13:00,
2013-10-14 21:19:00,62.4,46.5,29.88,ESE,115,0.0,0.0,56,0.00,,CLR,0.00,VWS V14.01,2013-10-15 04:19:00,
2013-10-14 21:22:00,62.4,46.5,29.88,East,80,0.0,0.0,56,0.00,,CLR,0.00,VWS V14.01,2013-10-15 04:22:00,
2013-10-14 21:27:00,62.0,46.2,29.88,NE,52,0.0,2.7,56,0.00,,CLR,0.00,VWS V14.01,2013-10-15 04:27:00,
2013-10-14 21:33:00,61.7,45.4,29.88,NE,34,0.0,0.0,55,0.00,,CLR,0.00,VWS V14.01,2013-10-15 04:33:00,
2013-10-14 21:34:00,61.7,45.4,29.88,NE,34,0.0,0.0,55,0.00,,CLR,0.00,VWS V14.01,2013-10-15 04:34:00,
2013-10-14 21:39:00,61.7,46.3,29.88,NE,34,0.0,0.0,57,0.00,,CLR,0.00,VWS V14.01,2013-10-15 04:39:00,
2013-10-14 21:44:00,61.5,46.1,29.88,NE,34,0.0,0.0,57,0.00,,CLR,0.00,VWS V14.01,2013-10-15 04:44:00,
2013-10-14 21:49:00,61.3,45.5,29.88,NE,34,0.0,0.0,56,0.00,,CLR,0.00,VWS V14.01,2013-10-15 04:49:00,
2013-10-14 21:54:00,61.1,45.3,29.88,NE,34,0.0,0.0,56,0.00,,CLR,0.00,VWS V14.01,2013-10-15 04:54:00,
2013-10-14 22:00:00,61.0,45.2,29.88,NE,34,0.0,0.0,56,0.00,,CLR,0.00,VWS V14.01,2013-10-15 05:00:00,
2013-10-14 22:05:00,61.0,45.6,29.88,NE,34,0.0,0.0,57,0.00,,CLR,0.00,VWS V14.01,2013-10-15 05:05:00,
2013-10-14 22:10:00,60.6,44.8,29.88,NE,34,0.0,0.0,56,0.00,,CLR,0.00,VWS V14.01,2013-10-15 05:10:00,
2013-10-14 22:15:00,60.4,45.1,29.88,NE,34,0.0,0.0,57,0.00,,CLR,0.00,VWS V14.01,2013-10-15 05:15:00,
2013-10-14 22:20:00,60.4,45.1,29.88,NE,34,0.0,0.0,57,0.00,,CLR,0.00,VWS V14.01,2013-10-15 05:20:00,
2013-10-14 22:25:00,60.2,45.0,29.88,NE,34,0.0,0.0,57,0.00,,CLR,0.00,VWS V14.01,2013-10-15 05:25:00,
2013-10-14 22:30:00,59.9,44.6,29.88,NE,34,0.0,0.0,57,0.00,,CLR,0.00,VWS V14.01,2013-10-15 05:30:00,
2013-10-14 22:35:00,59.9,44.6,29.88,NE,34,0.0,0.0,57,0.00,,CLR,0.00,VWS V14.01,2013-10-15 05:35:00,
2013-10-14 22:40:00,59.7,44.5,29.88,NE,34,0.0,0.0,57,0.00,,CLR,0.00,VWS V14.01,2013-10-15 05:40:00,
2013-10-14 22:45:00,59.5,44.8,29.88,NE,34,0.0,0.0,58,0.00,,CLR,0.00,VWS V14.01,2013-10-15 05:45:00,
2013-10-14 22:50:00,59.5,45.2,29.88,NE,34,0.0,0.0,59,0.00,,CLR,0.00,VWS V14.01,2013-10-15 05:50:00,
2013-10-14 22:55:00,59.3,45.5,29.88,NE,34,0.0,0.0,60,0.00,,CLR,0.00,VWS V14.01,2013-10-15 05:55:00,
2013-10-14 23:00:00,59.2,45.3,29.88,NE,34,0.0,0.0,60,0.00,,CLR,0.00,VWS V14.01,2013-10-15 06:00:00,
2013-10-14 23:05:00,58.8,45.0,29.88,NE,34,0.0,0.0,60,0.00,,CLR,0.00,VWS V14.01,2013-10-15 06:05:00,
2013-10-14 23:10:00,58.6,44.8,29.88,NE,34,0.0,0.0,60,0.00,,CLR,0.00,VWS V14.01,2013-10-15 06:10:00,
2013-10-14 23:16:00,58.4,45.1,29.88,NE,34,0.0,0.0,61,0.00,,CLR,0.00,VWS V14.01,2013-10-15 06:16:00,
2013-10-14 23:21:00,58.4,45.1,29.88,NE,34,0.0,0.0,61,0.00,,CLR,0.00,VWS V14.01,2013-10-15 06:21:00,
2013-10-14 23:27:00,58.3,44.9,29.88,NE,34,0.0,0.0,61,0.00,,CLR,0.00,VWS V14.01,2013-10-15 06:27:00,
2013-10-14 23:33:00,58.3,44.9,29.88,NNW,339,0.0,0.0,61,0.00,,CLR,0.00,VWS V14.01,2013-10-15 06:33:00,
2013-10-14 23:39:00,58.3,45.3,29.88,NNW,339,0.0,0.0,62,0.00,,CLR,0.00,VWS V14.01,2013-10-15 06:39:00,
2013-10-14 23:44:00,58.1,45.6,29.88,NNW,339,0.0,0.0,63,0.00,,CLR,0.00,VWS V14.01,2013-10-15 06:44:00,
2013-10-14 23:50:00,58.3,47.0,29.88,West,275,0.0,0.0,66,0.00,,CLR,0.00,VWS V14.01,2013-10-15 06:50:00,
2013-10-14 23:55:00,58.3,47.4,29.88,West,275,0.0,0.0,67,0.00,,CLR,0.00,VWS V14.01,2013-10-15 06:55:00,